Location: Casone le Fosse
(44.6547°N, 12.1103°E)
Time: 09:10:44
(UTC+00:00)

SMAP - Pass Details

Date: 29 October 2020
Orbit: 681 x 683 km, 98.1° (Epoch: 28 November)

Event Time Altitude Azimuth Distance (km) Brightness Sun altitude
Rises 16:21:57 0° 160° (SSE) 3,032 6.4 -3.8°
Reaches altitude 10° 16:24:11 10° 158° (SSE) 2,121 5.5 -4.2°
Maximum altitude 16:28:48 73° 75° (ENE) 717 3.0 -5.0°
Drops below altitude 10° 16:33:27 10° 350° (N) 2,137 5.6 -5.8°
Sets 16:35:43 0° 349° (N) 3,056 6.4 -6.2°
